Hourly Data Report for October 06, 2017

All times are specified in Local Standard Time (LST). Add 1 hour to adjust for Daylight Saving Time where and when it is observed.

SATURNA ISLAND CS
BRITISH COLUMBIA

48°47'02.067" N
123°02'41.082" W
24.40 m
1017101
71473
WEZ

Download Data

Hourly Data (October 2017)
Hourly Data Report for October 6, 2017
Temp Definition
°C
Dew Point Temp Definition
°C
Rel Hum Definition
%
Wind Dir Definition
10's deg

Wind Spd Definition
km/h
Visibility Definition
km
Stn Press Definition
kPa
Hmdx Definition


Wind Chill Definition


Weather Definition


TIME
00:00 10.8 6.3 74 23 15   101.64     LegendNANA
01:00 10.1 7.0 81 23 12   101.60     LegendNANA
02:00 10.1 7.8 86 22 21   101.55     LegendNANA
03:00 9.4 7.6 88 23 13   101.56     LegendNANA
04:00 9.4 7.8 90 21 17   101.51     LegendNANA
05:00 9.5 8.0 90 20 18   101.47     LegendNANA
06:00 10.0 8.5 90 21 28   101.38     LegendNANA
07:00 10.5 8.2 86 21 27   101.33     LegendNANA
08:00 11.8 8.5 81 21 29   101.33     LegendNANA
09:00 12.0 9.5 85 20 35   101.31     LegendNANA
10:00 12.4 9.8 84 19 16   101.29     LegendNANA
11:00 12.4 9.3 81 17 35   101.15     LegendNANA
12:00 14.0 10.1 77 20 40   101.10     LegendNANA
13:00 13.3 9.6 78 19 47   101.05     LegendNANA
14:00 13.7 10.1 79 21 34   100.97     LegendNANA
15:00 13.0 10.2 83 21 22   100.92     LegendNANA
16:00 13.2 10.4 83 23 20   100.87     LegendNANA
17:00 12.8 10.3 85 20 32   100.77     LegendNANA
18:00 12.1 9.9 87 20 38   100.68     LegendNANA
19:00 12.2 10.4 89 21 31   100.64     LegendNANA
20:00 12.2 10.7 91 22 27   100.68     LegendNANA
21:00 11.8 10.4 91 24 13   100.69     LegendNANA
22:00 11.5 10.0 91 23 12   100.77     LegendNANA
23:00 11.2 6.8 75 26 8   100.82     LegendNANA

Notes on Data Quality.

Legend

  • E = Estimated
  • M = Missing
  • NA = Not Available
  • ‡ = Partner data that is not subject to review by the National Climate Archives
Date modified: